This demonstration page uses our WeatherBlox Daily Observations layout. Learn more.

Left ArrowRight Arrow

Hourly Observations for June 7, 2019

Temp ( °F °C ) Dew Point ( °F °C ) Humidity (%) Winds ( mph kmh ) Pressure ( in mb ) Visibility ( mi km ) Precip ( " mm )
12:30 am 00:30 Cloudy with Thunderstorms 54 12 50 10 88 88 W 18 30 29.68 1005 10 16 0.00 0.00
12:45 am 00:45 Cloudy with Rain 53 11.7 50 10 89 89 WSW 14 22 29.72 1006 9 14 0.02 0.51
12:53 am 00:53 Cloudy with Rain 53 11.7 50 10 89 89 WNW 13 20 29.69 1006 4 6 0.04 1.02
1:53 am 01:53 Cloudy 52 11.1 50 10 93 93 SSW 7 11 29.67 1005 10 16 0.08 2.03
2:53 am 02:53 Cloudy 52 11.1 50 10 93 93 WSW 9 15 29.67 1005 10 16 0.00 0.00
3:53 am 03:53 Mostly Cloudy 51 10.6 49 9.4 92 92 SW 10 17 29.65 1004 10 16 0.00 0.00
4:53 am 04:53 Mostly Cloudy 51 10.6 49 9.4 92 92 SW 14 22 29.67 1005 10 16 0.00 0.00
5:53 am 05:53 Mostly Sunny 50 10 47 8.3 89 89 SW 15 24 29.70 1006 10 16 0.00 0.00
6:53 am 06:53 Mostly Cloudy 50 10 46 7.8 86 86 WSW 14 22 29.70 1006 10 16 0.00 0.00
7:53 am 07:53 Cloudy 52 11.1 46 7.8 80 80 WSW 10 17 29.72 1007 10 16 0.00 0.00
8:53 am 08:53 Mostly Cloudy 54 12.2 44 6.7 69 69 W 16 26 29.73 1007 10 16 0.00 0.00
9:53 am 09:53 Mostly Sunny 60 15.6 42 5.6 52 52 W 16 26 29.73 1007 10 16 0.00 0.00
10:53 am 10:53 Sunny 60 15.6 38 3.3 44 44 W 21 33 29.74 1007 10 16 0.00 0.00
11:53 am 11:53 Sunny 63 17.2 32 0 31 31 W 22 35 29.73 1007 10 16 0.00 0.00
12:53 pm 12:53 Sunny 63 17.2 31 -0.6 30 30 W 25 41 29.75 1007 10 16 0.00 0.00
1:53 pm 13:53 Sunny 63 17.2 28 -2.2 27 27 W 22 35 29.75 1007 10 16 0.00 0.00
2:53 pm 14:53 Sunny 67 19.4 28 -2.2 23 23 W 17 28 29.72 1006 10 16 0.00 0.00
3:53 pm 15:53 Sunny 65 18.3 27 -2.8 24 24 W 16 26 29.73 1007 10 16 0.00 0.00
4:53 pm 16:53 Sunny 66 18.9 27 -2.8 23 23 W 17 28 29.73 1007 10 16 0.00 0.00
5:53 pm 17:53 Sunny 64 17.8 29 -1.7 27 27 WSW 10 17 29.74 1007 10 16 0.00 0.00
6:53 pm 18:53 Mostly Cloudy 65 18.3 26 -3.3 23 23 WNW 13 20 29.75 1008 10 16 0.00 0.00
7:53 pm 19:53 Mostly Sunny 59 15 36 2.2 42 42 NNW 21 33 29.80 1009 10 16 0.00 0.00
8:53 pm 20:53 Sunny 55 12.8 37 2.8 51 51 NNW 13 20 29.81 1010 10 16 0.00 0.00
9:53 pm 21:53 Clear 51 10.6 35 1.7 54 54 NNW 13 20 29.88 1012 10 16 0.00 0.00
10:53 pm 22:53 Clear 48 8.9 34 1.1 58 58 NNW 10 17 29.93 1014 10 16 0.00 0.00
11:53 pm 23:53 Mostly Clear 46 7.8 33 0.6 61 61 NW 7 11 29.96 1015 10 16 0.00 0.00

Powered by AerisWeather